Location: TAAA CAC
(31.8680°N, 109.5150°W)
Time: 20:44:49
(UTC-07:00)

Hubble Space Telescope - Pass Details

Date: 17 March 2026
Orbit: 474 x 477 km, 28.5° (Epoch: 20 April)

Event Time Altitude Azimuth Distance (km) Brightness Sun altitude
Rises 19:50:02 0° 266° (W) 2,506 5.7 -18.2°
Reaches altitude 10° 19:52:32 10° 251° (WSW) 1,627 4.1 -18.7°
Maximum altitude 19:55:31 23° 198° (SSW) 1,048 2.3 -19.4°
Enters shadow 19:56:21 21° 178° (S) 1,103 2.2 -19.5°
